Flag for Argentina Weather past 2 weeks in Formosa, Formosa, Argentina

Now
70 °F

Clear.


Feels Like: 70 °F
Forecast: 63 / 83 °F
Wind: 10 mph from South

Location: Formosa Aerodrome

Current Time: Dec 22, 2014 at 9:19:58 PM

Latest Report: Dec 22, 2014 at 9:00 PM


Visibility: 10 mi

Pressure: 30.04 "Hg

Humidity: 69%

Dew point: 59 °F

Location of FormosaLocation

Historic Weather in Formosa — Graph

°F

Formosa temperature yesterday

Maximum temperature yesterday: 84 °F (at 12:00 AM)
Minimum temperature yesterday: 70 °F (at 10:00 AM)
Average temperature yesterday: 75 °F

Past Weeks' High & Low Weather Summary

 TemperatureHumidityPressure
High97 °F (Dec 15, 4:00 PM)100% (Dec 11, 5:00 AM)30.01 "Hg (Dec 11, 5:00 AM)
Low66 °F (Dec 22, 6:00 AM)41% (Dec 13, 4:00 PM)29.39 "Hg (Dec 20, 6:00 PM)
Average82 °F73%29.77 "Hg
* Reported Dec 7 8:00 PM — Dec 22 8:00 PM, Formosa, Weather by CustomWeather, © 2014

Note: Actual official high and low records may vary slightly from our data, if they occured in-between our weather recording intervals... More about our weather records

Advertising

Formosa weather history for previous 24 hours

 ConditionsComfort  
Time TempWeatherWind HumidityBarometerVisibility
8:00 PM
Dec 22
73 °FClear.14 mph57%29.98 "Hg10 mi
7:00 PM77 °FClear.16 mph47%29.98 "Hg10 mi
6:00 PM79 °FSunny.17 mph48%29.98 "Hg10 mi
5:00 PM77 °FSunny.16 mph51%29.98 "Hg10 mi
4:00 PM77 °FSunny.17 mph51%30.01 "Hg10 mi
3:00 PM77 °FPassing clouds.17 mph51%30.01 "HgN/A
2:00 PM77 °FPassing clouds.21 mph57%30.01 "HgN/A
1:00 PM79 °FSunny.21 mph48%29.98 "Hg10 mi
12:00 PM75 °FSunny.14 mph50%30.01 "Hg10 mi
11:00 AM75 °FSunny.14 mph57%30.01 "Hg10 mi
10:00 AM72 °FSunny.17 mph65%29.98 "Hg10 mi
9:00 AM70 °FPassing clouds.25 mph69%29.98 "HgN/A
8:00 AM68 °FScattered clouds.17 mph78%29.98 "HgN/A
7:00 AM68 °FPassing clouds.21 mph78%29.92 "HgN/A
6:00 AM66 °FScattered clouds.20 mph88%29.92 "HgN/A
5:00 AM68 °FScattered clouds.16 mph88%29.86 "HgN/A
4:00 AM68 °FPassing clouds.14 mph94%29.86 "HgN/A
3:00 AM68 °FPassing clouds.18 mph94%29.86 "HgN/A
2:00 AM70 °FDrizzle. Low clouds.16 mph100%29.86 "Hg2 mi
1:00 AM70 °FDrizzle. Low clouds.13 mph100%29.83 "Hg2 mi
12:00 AM70 °FClear.6 mph100%29.80 "Hg10 mi
11:00 PM
Dec 21
70 °FClear.2 mph100%29.77 "Hg10 mi
10:00 PM72 °FClear.3 mph94%29.74 "Hg10 mi
9:00 PM72 °FPassing clouds.3 mph94%29.71 "HgN/A
Weather by CustomWeather, © 2014

See weather overviewHow to use our weather pages